sat.trackr.live / text

‹ back to catalog

IRIDE-MS1-EAGLET 2-14

NORAD 68447 · 2026-067AH

PAYLOAD ACTIVE UNKNOWN

§ Identity

Operator
Country
IT
Launch date
2026-03-30
Launch site
AFWTR
Launch vehicle
Mass (kg)
RCS (m²)

External: N2YO · Heavens-Above · Gunter

§ Orbital elements

Epoch: 2026-09-20T03:30:55.744992Z

Period
94.73 min
Inclination
97.4616°
Eccentricity
0.0003281
Mean motion
15.20083717 rev/d
Perigee alt
503.3 km
Apogee alt
507.8 km
Semi-major
6,883.7 km
B*
2.4400e-4
RAAN
220.4595°
Arg perigee
67.5364°
Mean anomaly
292.6218°
Rev number
2,636

§ Raw data

IRIDE-MS1-EAGLET 2-141 68447U 26067AH  26263.14647853  .00005200  00000+0  24400-3 0  99962 68447  97.4616 220.4595 0003281  67.5364 292.6218 15.20083717 26367

JSON: /api/v1/satellites/68447 · /tle

For live sub-satellite position, see the globe view (requires WebGL).

§ Visibility from observer

Set your observer location to see the next 7 days of passes ≥ 10°. The values pass through the URL so the page stays shareable.

No JS? Fill the form by hand. The geolocation button needs JavaScript.